W4DHW-4 Weather Reports


time (UTC)temp
C
wind
direction
speed
KPH
gust
KPH
rain 1hr
cm
rain 24hr
cm
rain mn
cm
humidity
%
barometer
mb
20260508033728 12 290 6.4 9.7 0.00 0.05 0.05 59 1014.0
20260508033227 12 298 8.0 11.3 0.00 0.05 0.05 60 1013.8
20260508032724 12 272 4.8 4.8 0.00 0.05 0.05 59 1014.1
20260508032221 12 321 4.8 9.7 0.00 0.05 0.05 61 1014.1
20260508031718 12 266 4.8 8.0 0.00 0.05 0.05 61 1014.0
20260508031214 11 300 11.3 11.3 0.00 0.05 0.05 65 1013.8
20260508030710 10 297 1.6 3.2 0.00 0.05 0.05 81 1013.9
20260508030203 8 269 0.0 1.6 0.00 0.05 0.05 87 1013.7
20260508025659 8 277 0.0 0.0 0.00 0.05 0.05 93 1013.8
20260508025157 9 273 0.0 1.6 0.00 0.05 0.05 94 1013.6
20260508024652 10 269 0.0 0.0 0.00 0.05 0.05 94 1013.5
20260508024150 10 273 0.0 0.0 0.00 0.05 0.05 94 1013.7
20260508023645 10 272 0.0 0.0 0.00 0.05 0.05 94 1013.2
20260508023144 10 268 0.0 0.0 0.00 0.05 0.05 94 1013.3
20260508022639 10 267 1.6 1.6 0.00 0.05 0.05 94 1013.5
20260508022136 10 270 0.0 0.0 0.00 0.05 0.05 94 1013.1
20260508021632 10 288 0.0 0.0 0.00 0.05 0.05 93 1012.9
20260508021127 10 281 0.0 0.0 0.00 0.05 0.05 93 1013.1
20260508020626 10 269 0.0 0.0 0.00 0.05 0.05 93 1013.2
20260508020123 11 258 1.6 1.6 0.00 0.05 0.05 93 1013.0
20260508015621 11 301 1.6 1.6 0.00 0.05 0.05 92 1013.0
20260508015118 11 272 0.0 0.0 0.00 0.05 0.05 92 1012.9
20260508014614 11 322 1.6 1.6 0.00 0.05 0.05 92 1012.9
20260508014110 11 269 0.0 1.6 0.00 0.05 0.05 92 1012.7
20260508013606 11 294 1.6 1.6 0.00 0.05 0.05 92 1012.4
20260508013103 11 300 1.6 3.2 0.00 0.05 0.05 92 1012.5
20260508012601 11 277 0.0 0.0 0.00 0.05 0.05 91 1012.6
20260508012058 11 337 1.6 1.6 0.00 0.05 0.05 92 1012.3
20260508011556 11 291 1.6 1.6 0.00 0.05 0.05 91 1012.3
20260508011053 11 333 3.2 3.2 0.00 0.05 0.05 91 1012.3
20260508010550 12 310 1.6 3.2 0.00 0.05 0.05 90 1012.0
20260508010048 12 299 1.6 3.2 0.00 0.05 0.05 90 1011.9
20260508005544 12 297 1.6 1.6 0.00 0.05 0.05 90 1011.9
20260508005041 12 282 0.0 0.0 0.00 0.05 0.05 89 1011.6
20260508004536 12 277 1.6 1.6 0.00 0.05 0.05 89 1011.5
20260508004033 12 238 0.0 1.6 0.00 0.05 0.05 88 1011.6
20260508003530 12 51 3.2 3.2 0.00 0.05 0.05 88 1011.3
20260508003028 13 269 0.0 0.0 0.00 0.05 0.05 87 1011.4
20260508002523 13 328 1.6 1.6 0.00 0.05 0.05 86 1011.5
20260508002021 13 218 0.0 0.0 0.00 0.05 0.05 86 1011.6
20260508001517 13 265 0.0 0.0 0.00 0.05 0.05 85 1011.3
20260508001013 13 239 1.6 1.6 0.00 0.05 0.05 85 1011.5
20260508000509 13 332 3.2 3.2 0.00 0.05 0.05 85 1011.4
20260508000007 13 220 0.0 1.6 0.00 0.05 0.05 84 1011.2
20260507235503 13 104 4.8 4.8 0.00 0.05 0.05 84 1011.1
20260507235001 14 350 4.8 4.8 0.00 0.05 0.05 84 1011.2
20260507234457 14 243 1.6 1.6 0.00 0.05 0.05 83 1010.6
20260507233953 14 244 0.0 0.0 0.00 0.05 0.05 83 1010.7
20260507233450 14 347 1.6 3.2 0.00 0.05 0.05 83 1010.7
20260507232949 14 71 1.6 3.2 0.00 0.05 0.05 82 1010.5
20260507232444 15 50 3.2 3.2 0.00 0.05 0.05 81 1010.5
20260507231942 15 3 1.6 3.2 0.00 0.05 0.05 81 1010.4
20260507231438 15 110 3.2 3.2 0.00 0.05 0.05 81 1010.3
20260507230935 15 79 6.4 9.7 0.00 0.05 0.05 81 1010.2
20260507230433 15 43 4.8 8.0 0.00 0.05 0.05 81 1010.0
20260507225932 15 81 11.3 11.3 0.00 0.05 0.05 81 1010.1
20260507225428 15 103 4.8 8.0 0.00 0.05 0.05 81 1010.1
20260507224925 15 58 3.2 3.2 0.00 0.05 0.05 80 1010.0
20260507224421 16 71 9.7 11.3 0.00 0.05 0.05 79 1010.2
20260507223917 16 173 14.5 16.1 0.00 0.05 0.05 74 1010.1
20260507223414 16 135 6.4 8.0 0.00 0.05 0.05 77 1010.0
20260507222911 16 222 3.2 3.2 0.00 0.05 0.05 78 1009.7
20260507222408 16 117 8.0 9.7 0.00 0.05 0.05 78 1009.9
20260507221904 16 115 4.8 4.8 0.00 0.05 0.05 78 1009.8
20260507221401 16 155 8.0 9.7 0.00 0.05 0.05 77 1009.7
20260507220856 16 158 6.4 8.0 0.00 0.05 0.05 76 1009.7
20260507220355 16 166 16.1 24.1 0.00 0.05 0.05 76 1009.8
20260507215851 16 163 11.3 14.5 0.00 0.05 0.05 76 1009.6
20260507215348 16 171 14.5 16.1 0.00 0.05 0.05 75 1009.6
20260507214845 16 214 9.7 11.3 0.00 0.05 0.05 75 1009.6
20260507214344 16 183 6.4 8.0 0.00 0.05 0.05 75 1009.8
20260507213844 16 195 9.7 11.3 0.00 0.05 0.05 74 1009.9
20260507213341 16 168 11.3 12.9 0.00 0.05 0.05 74 1009.8
20260507212837 16 252 4.8 8.0 0.00 0.05 0.05 74 1009.8
20260507212333 16 185 8.0 9.7 0.00 0.05 0.05 75 1009.8
20260507211830 16 108 11.3 12.9 0.00 0.05 0.05 74 1009.8
20260507211327 16 177 8.0 9.7 0.00 0.05 0.05 74 1009.6
20260507210824 15 186 4.8 4.8 0.00 0.05 0.05 75 1009.6
20260507210321 15 200 12.9 14.5 0.00 0.05 0.05 75 1009.7
20260507205817 15 289 4.8 8.0 0.00 0.05 0.05 75 1009.6
20260507205314 15 215 11.3 14.5 0.00 0.05 0.05 76 1009.7
20260507204810 15 181 14.5 14.5 0.00 0.05 0.05 77 1009.6
20260507204308 15 202 12.9 16.1 0.00 0.05 0.05 78 1009.5
20260507203806 16 163 9.7 11.3 0.00 0.05 0.05 77 1009.6
20260507203303 16 200 4.8 8.0 0.00 0.05 0.05 77 1009.7
20260507202759 16 260 11.3 12.9 0.00 0.05 0.05 77 1009.9
20260507202255 15 173 6.4 8.0 0.00 0.05 0.05 79 1009.8
20260507201750 15 223 14.5 17.7 0.00 0.05 0.05 79 1010.2
20260507201247 15 211 4.8 8.0 0.00 0.05 0.05 78 1010.1
20260507200743 15 259 4.8 4.8 0.00 0.05 0.05 80 1010.1
20260507200239 15 184 4.8 8.0 0.00 0.05 0.05 80 1010.0
20260507195735 15 236 9.7 14.5 0.00 0.05 0.05 81 1010.2
20260507195233 15 279 19.3 29.0 0.00 0.05 0.05 82 1010.4
20260507194730 15 182 8.0 9.7 0.00 0.05 0.05 82 1010.4
20260507194226 15 255 8.0 9.7 0.00 0.05 0.05 83 1010.3
20260507193723 15 200 6.4 8.0 0.00 0.05 0.05 83 1010.8
20260507193220 15 205 3.2 3.2 0.00 0.05 0.05 84 1010.8
20260507192716 14 244 8.0 9.7 0.00 0.05 0.05 84 1010.6
20260507192213 14 181 4.8 4.8 0.00 0.05 0.05 85 1010.6
20260507191708 14 166 6.4 8.0 0.00 0.05 0.05 86 1010.8
20260507191206 14 233 6.4 8.0 0.00 0.05 0.05 86 1011.1
20260507190703 14 145 6.4 8.0 0.00 0.05 0.05 87 1011.0
20260507190201 14 229 11.3 16.1 0.00 0.05 0.05 86 1011.1
20260507185659 13 237 4.8 4.8 0.00 0.05 0.05 87 1010.9
20260507185156 13 226 9.7 11.3 0.00 0.05 0.05 86 1011.1
20260507184654 13 218 4.8 4.8 0.00 0.05 0.05 86 1011.2
20260507184151 13 211 3.2 3.2 0.00 0.05 0.05 86 1011.2
20260507183647 13 149 3.2 4.8 0.00 0.05 0.05 87 1011.2
20260507183145 13 200 4.8 8.0 0.00 0.05 0.05 86 1011.2
20260507182642 13 219 0.0 1.6 0.00 0.05 0.05 86 1011.3
20260507182137 13 237 3.2 3.2 0.00 0.05 0.05 86 1011.4
20260507181634 13 202 6.4 8.0 0.00 0.05 0.05 87 1011.2
20260507181130 13 221 1.6 3.2 0.00 0.05 0.05 87 1011.3
20260507180626 13 207 4.8 8.0 0.00 0.05 0.05 88 1011.1
20260507180124 13 235 1.6 1.6 0.00 0.05 0.05 88 1011.1
20260507175619 13 166 4.8 4.8 0.00 0.05 0.05 86 1011.6
20260507175117 13 196 0.0 1.6 0.00 0.05 0.05 87 1011.4
20260507174614 13 257 0.0 0.0 0.00 0.05 0.05 85 1011.6
20260507174112 13 294 0.0 0.0 0.00 0.05 0.05 86 1011.3
20260507173609 13 247 1.6 3.2 0.00 0.05 0.05 85 1011.5
20260507173106 13 262 1.6 1.6 0.00 0.05 0.05 86 1011.5
20260507172602 12 240 1.6 3.2 0.00 0.05 0.05 86 1011.4
20260507172059 12 207 0.0 1.6 0.00 0.05 0.05 87 1011.7
20260507171554 12 289 0.0 1.6 0.00 0.05 0.05 88 1011.8
20260507171052 12 60 3.2 4.8 0.00 0.05 0.05 88 1011.6
20260507170548 12 275 0.0 0.0 0.00 0.05 0.05 89 1011.9
20260507170045 12 349 3.2 3.2 0.00 0.05 0.05 89 1012.1
20260507165541 12 333 6.4 8.0 0.00 0.05 0.05 89 1012.1
20260507165038 13 327 3.2 3.2 0.00 0.05 0.05 88 1012.0
20260507164534 13 322 0.0 0.0 0.00 0.05 0.05 89 1012.1
20260507164031 13 47 1.6 3.2 0.18 0.05 0.05 88 1012.0
20260507163528 12 276 1.6 1.6 0.30 0.05 0.05 88 1012.4
20260507163026 12 334 3.2 3.2 0.13 0.03 0.03 87 1012.3
20260507162520 12 269 1.6 1.6 0.00 0.00 0.00 86 1012.4
20260507162018 12 333 3.2 3.2 0.00 0.00 0.00 86 1012.4
20260507161514 12 322 6.4 8.0 0.00 0.00 0.00 85 1012.5
20260507161011 12 299 1.6 1.6 0.00 0.00 0.00 85 1012.4
20260507160507 12 309 3.2 3.2 0.00 0.00 0.00 85 1012.4
20260507160003 12 269 0.0 1.6 0.00 0.00 0.00 86 1012.3
20260507155459 12 321 8.0 9.7 0.00 0.00 0.00 84 1012.5
20260507154956 12 326 6.4 8.0 0.00 0.00 0.00 85 1012.7
20260507154453 12 279 1.6 1.6 0.00 0.00 0.00 86 1012.7
20260507153949 12 275 1.6 1.6 0.00 0.00 0.00 85 1012.7
20260507153447 12 315 4.8 4.8 0.00 0.00 0.00 85 1012.7
20260507152943 12 269 1.6 1.6 0.00 0.00 0.00 84 1012.7
20260507152439 12 333 6.4 8.0 0.00 0.00 0.00 84 1012.5
20260507151935 12 354 9.7 11.3 0.00 0.00 0.00 84 1012.6
20260507151431 12 40 0.0 1.6 0.00 0.00 0.00 85 1012.6
20260507150929 12 12 4.8 4.8 0.00 0.00 0.00 84 1012.3
20260507150426 12 17 3.2 4.8 0.00 0.00 0.00 84 1012.6
20260507145922 12 326 1.6 1.6 0.00 0.00 0.00 83 1012.4
20260507145418 12 284 1.6 3.2 0.00 0.00 0.00 84 1012.1
20260507144915 12 4 4.8 8.0 0.00 0.00 0.00 84 1012.7
20260507144412 13 328 1.6 1.6 0.00 0.00 0.00 84 1012.8
20260507143908 13 23 3.2 3.2 0.00 0.00 0.00 83 1012.6
20260507143406 13 55 4.8 4.8 0.00 0.00 0.00 83 1012.9
20260507142902 13 353 4.8 9.7 0.00 0.00 0.00 82 1012.4
20260507142358 13 325 4.8 8.0 0.00 0.00 0.00 82 1012.5
20260507141856 13 235 0.0 0.0 0.00 0.00 0.00 82 1012.6
20260507141352 13 333 1.6 1.6 0.00 0.00 0.00 81 1012.3
20260507140848 13 314 1.6 3.2 0.00 0.00 0.00 81 1012.5
20260507140345 13 69 3.2 8.0 0.00 0.00 0.00 80 1012.7
20260507135843 13 26 4.8 9.7 0.00 0.00 0.00 80 1012.7
20260507135340 13 4 6.4 11.3 0.00 0.00 0.00 80 1012.8
20260507134837 13 317 1.6 1.6 0.00 0.00 0.00 82 1012.7
20260507134333 13 324 9.7 11.3 0.00 0.00 0.00 81 1012.9
20260507133829 13 20 4.8 4.8 0.00 0.00 0.00 81 1012.8
20260507133325 13 293 1.6 4.8 0.00 0.00 0.00 82 1012.9
20260507132824 13 278 1.6 3.2 0.00 0.00 0.00 82 1012.7
20260507132319 13 328 6.4 8.0 0.00 0.00 0.00 82 1012.9
20260507131817 13 61 3.2 8.0 0.00 0.00 0.00 82 1012.7
20260507131313 13 45 6.4 9.7 0.00 0.00 0.00 83 1012.6
20260507130810 13 329 3.2 8.0 0.00 0.00 0.00 84 1012.9
20260507130308 13 32 3.2 3.2 0.00 0.00 0.00 84 1012.8
20260507125807 13 321 1.6 1.6 0.00 0.00 0.00 84 1012.1
20260507125306 13 344 4.8 8.0 0.00 0.00 0.00 84 1012.8
20260507124800 13 277 0.0 1.6 0.00 0.00 0.00 84 1012.4
20260507124257 13 224 0.0 0.0 0.00 0.00 0.00 85 1012.5
20260507123755 13 45 1.6 1.6 0.00 0.00 0.00 85 1012.6
20260507123253 13 273 1.6 1.6 0.00 0.00 0.00 85 1012.6
20260507122748 13 52 3.2 3.2 0.00 0.00 0.00 84 1012.6
20260507122244 13 48 4.8 8.0 0.00 0.00 0.00 84 1012.4
20260507121740 13 345 3.2 4.8 0.00 0.00 0.00 84 1012.3
20260507121236 13 135 1.6 3.2 0.00 0.00 0.00 84 1011.9
20260507120732 14 52 3.2 3.2 0.00 0.00 0.00 85 1012.5
20260507120229 14 346 4.8 4.8 0.00 0.00 0.00 86 1012.5
20260507115725 15 46 6.4 9.7 0.00 0.00 0.00 85 1012.4
20260507115221 15 252 4.8 8.0 0.00 0.00 0.00 85 1012.4
20260507114717 15 352 4.8 8.0 0.00 0.00 0.00 85 1012.3
20260507114215 15 8 4.8 8.0 0.00 0.00 0.00 84 1011.8
20260507113712 15 257 3.2 4.8 0.00 0.00 0.00 85 1012.0
20260507113209 15 331 1.6 3.2 0.00 0.00 0.00 84 1012.1
20260507112706 15 270 0.0 0.0 0.00 0.00 0.00 84 1012.0
20260507112203 15 332 4.8 4.8 0.00 0.00 0.00 84 1011.9
20260507111700 15 342 6.4 8.0 0.00 0.00 0.00 84 1011.9
20260507111157 15 299 1.6 3.2 0.00 0.00 0.00 86 1011.9
20260507110653 15 283 0.0 1.6 0.00 0.00 0.00 85 1011.8
20260507110150 15 248 0.0 1.6 0.00 0.00 0.00 85 1011.6
20260507105647 15 271 0.0 0.0 0.00 0.00 0.00 84 1011.4
20260507105142 15 354 1.6 1.6 0.00 0.00 0.00 84 1011.5
20260507104640 15 298 1.6 3.2 0.00 0.00 0.00 84 1011.4
20260507104136 15 270 0.0 0.0 0.00 0.00 0.00 84 1011.3
20260507103633 15 264 0.0 0.0 0.00 0.00 0.00 84 1011.2
20260507103130 15 301 1.6 1.6 0.00 0.00 0.00 84 1011.3
20260507102626 15 302 0.0 0.0 0.00 0.00 0.00 84 1010.9
20260507102122 15 281 0.0 1.6 0.00 0.00 0.00 83 1011.1
20260507101618 16 299 3.2 3.2 0.00 0.00 0.00 80 1011.0
20260507101114 16 281 1.6 3.2 0.00 0.00 0.00 80 1011.3
20260507100611 16 286 0.0 1.6 0.00 0.00 0.00 79 1011.2
20260507100110 16 304 4.8 4.8 0.00 0.00 0.00 78 1011.6
20260507095607 16 269 1.6 4.8 0.00 0.00 0.00 80 1011.3
20260507095104 16 297 4.8 8.0 0.00 0.00 0.00 76 1011.0
20260507094600 16 296 3.2 3.2 0.00 0.00 0.00 75 1011.1
20260507094057 16 347 3.2 3.2 0.00 0.00 0.00 75 1011.1
20260507093554 16 269 1.6 1.6 0.00 0.00 0.00 80 1011.7
20260507093053 16 267 0.0 0.0 0.00 0.00 0.00 80 1011.5
20260507092549 16 6 1.6 3.2 0.00 0.00 0.00 79 1011.3
20260507092046 16 296 0.0 1.6 0.00 0.00 0.00 80 1011.1
20260507091543 16 264 0.0 0.0 0.00 0.00 0.00 85 1010.7
20260507091039 16 60 3.2 3.2 0.00 0.00 0.00 85 1010.7
20260507090534 16 182 0.0 1.6 0.00 0.00 0.00 86 1010.8
20260507090032 16 315 1.6 1.6 0.00 0.00 0.00 85 1011.0
20260507085529 16 225 0.0 1.6 0.00 0.00 0.00 87 1011.1
20260507085025 16 301 0.0 1.6 0.00 0.00 0.00 87 1011.4
20260507084522 16 325 4.8 4.8 0.00 0.00 0.00 86 1011.2
20260507084019 16 306 3.2 3.2 0.00 0.00 0.00 85 1011.4
20260507083515 16 308 3.2 3.2 0.00 0.00 0.00 85 1011.4
20260507083013 16 282 0.0 0.0 0.00 0.00 0.00 86 1011.5
20260507082508 16 266 0.0 0.0 0.00 0.00 0.00 86 1011.2
20260507082004 16 262 0.0 0.0 0.00 0.00 0.00 86 1011.2
20260507081501 16 215 0.0 0.0 0.00 0.00 0.00 86 1011.0
20260507080958 16 240 0.0 0.0 0.00 0.00 0.00 86 1011.3
20260507080454 16 263 0.0 0.0 0.00 0.00 0.00 86 1011.2
20260507075949 16 274 0.0 0.0 0.00 0.00 0.00 86 1011.4
20260507075446 16 151 3.2 3.2 0.00 0.00 0.00 85 1011.1
20260507074943 16 279 1.6 1.6 0.00 0.00 0.00 85 1011.3
20260507074439 16 185 1.6 1.6 0.00 0.00 0.00 85 1011.1
20260507073937 16 103 1.6 1.6 0.00 0.00 0.00 86 1011.1
20260507073434 16 257 1.6 1.6 0.00 0.00 0.00 85 1011.0
20260507072930 16 52 1.6 1.6 0.00 0.00 0.00 85 1010.9
20260507072428 16 17 3.2 3.2 0.00 0.00 0.00 84 1011.0
20260507071926 16 324 1.6 1.6 0.00 0.00 0.00 83 1011.0
20260507071422 16 297 1.6 1.6 0.00 0.00 0.00 83 1011.0
20260507070919 17 294 3.2 3.2 0.00 0.00 0.00 82 1011.4
20260507070416 17 287 0.0 0.0 0.00 0.00 0.00 81 1011.1
20260507065913 17 269 0.0 0.0 0.00 0.00 0.00 81 1010.9
20260507065410 17 270 4.8 4.8 0.00 0.00 0.00 79 1011.0
20260507064907 17 308 3.2 3.2 0.00 0.00 0.00 79 1010.8
20260507064405 17 267 0.0 0.0 0.00 0.00 0.00 80 1010.6
20260507063902 17 277 1.6 3.2 0.00 0.00 0.00 81 1010.7
20260507063359 17 269 0.0 0.0 0.00 0.00 0.00 81 1010.9
20260507062856 17 291 1.6 1.6 0.00 0.00 0.00 81 1011.0
20260507062353 17 322 4.8 4.8 0.00 0.00 0.00 81 1011.0
20260507061851 17 318 4.8 4.8 0.00 0.00 0.00 81 1011.2
20260507061348 17 283 3.2 3.2 0.00 0.00 0.00 83 1011.2
20260507060847 17 47 4.8 4.8 0.00 0.00 0.00 84 1010.8
20260507060343 17 281 1.6 1.6 0.00 0.00 0.00 85 1011.3
20260507055840 17 298 4.8 8.0 0.00 0.00 0.00 85 1011.3
20260507055335 17 273 0.0 0.0 0.00 0.00 0.00 88 1011.4
20260507054832 17 282 8.0 11.3 0.00 0.00 0.00 90 1011.4
20260507054328 17 289 1.6 1.6 0.00 0.00 0.00 93 1011.5
20260507053826 17 279 0.0 1.6 0.00 0.00 0.00 93 1011.6
20260507053323 17 260 3.2 3.2 0.00 0.00 0.00 93 1011.5
20260507052822 17 290 1.6 3.2 0.00 0.00 0.00 93 1011.3
20260507052318 17 297 6.4 8.0 0.00 0.00 0.00 93 1011.2
20260507051816 17 273 4.8 8.0 0.00 0.00 0.00 93 1011.2
20260507051313 17 306 8.0 11.3 0.00 0.00 0.00 94 1011.1
20260507050810 17 283 3.2 3.2 0.00 0.00 0.00 94 1010.9
20260507050306 17 305 6.4 8.0 0.00 0.00 0.00 93 1010.6
20260507045803 17 302 3.2 3.2 0.00 0.00 0.00 93 1010.2
20260507045259 17 277 0.0 0.0 0.00 0.00 0.00 93 1010.0
20260507044757 17 217 1.6 3.2 0.00 0.00 0.00 93 1010.1
20260507044253 17 228 1.6 1.6 0.00 0.00 0.00 93 1009.9
20260507043749 17 251 1.6 1.6 0.00 0.00 0.00 92 1010.3
20260507043246 17 261 0.0 0.0 0.00 0.00 0.00 92 1010.4
20260507042742 17 293 1.6 1.6 0.00 0.00 0.00 92 1010.3
20260507042237 18 25 1.6 1.6 0.00 0.00 0.00 92 1010.3
20260507041736 18 253 0.0 0.0 0.00 0.00 0.00 91 1010.3
20260507041232 18 260 1.6 1.6 0.00 0.00 0.00 91 1010.7
20260507040729 18 256 1.6 1.6 0.00 0.00 0.00 91 1010.8
20260507040225 18 205 1.6 1.6 0.00 0.28 0.28 90 1011.1
20260507035721 18 214 3.2 3.2 0.00 0.28 0.28 90 1010.9
20260507035217 18 266 1.6 1.6 0.00 0.28 0.28 89 1011.1
20260507034714 18 245 4.8 4.8 0.00 0.28 0.28 89 1011.1